When you browse on this site, cookies collect data to enhance your experience and personalize the content and advertising you see.
Visit our Privacy Policy to learn more. By continuing to use the site, you agree to this use of cookies and data.
  • En España
  • Lista de países
  • Para 7 días
  • Temperatura del agua
  • Mapa Satelital
  • El tiempo en el mapa
  • Informadores
  • user-avatar
    Iniciar sesión

    Tiempo cada hora Gold Coast

    Hoy, 21 Julio, Domingo

    Tiempo Temperatura Precipitaciones Viento Presión Humedad
    00:00 +12°C° 0 mm 1 mps 762 mmHg 86%
    01:00 +12°C° 0 mm 1 mps 762 mmHg 86%
    02:00 +12°C° 0 mm 1 mps 762 mmHg 87%
    03:00 +12°C° 0 mm 1 mps 762 mmHg 88%
    04:00 +12°C° 0 mm 1 mps 762 mmHg 90%
    05:00 +12°C° 0 mm 2 mps 762 mmHg 90%
    06:00 +10°C° 0 mm 2 mps 762 mmHg 89%
    07:00 +10°C° 0 mm 2 mps 763 mmHg 89%
    08:00 +14°C° 0 mm 2 mps 762 mmHg 76%
    09:00 +17°C° 0 mm 2 mps 762 mmHg 63%
    10:00 +20°C° 0 mm 2 mps 762 mmHg 50%
    11:00 +21°C° 0 mm 2 mps 761 mmHg 46%
    12:00 +21°C° 0 mm 2 mps 761 mmHg 43%
    13:00 +22°C° 0 mm 3 mps 760 mmHg 39%
    14:00 +21°C° 0 mm 3 mps 760 mmHg 43%
    15:00 +21°C° 0 mm 3 mps 759 mmHg 46%
    16:00 +20°C° 0 mm 3 mps 759 mmHg 50%
    17:00 +18°C° 0 mm 3 mps 759 mmHg 60%
    18:00 +16°C° 0 mm 3 mps 760 mmHg 71%
    19:00 +13°C° 0 mm 2 mps 760 mmHg 81%
    20:00 +13°C° 0 mm 2 mps 760 mmHg 82%
    21:00 +13°C° 0 mm 2 mps 761 mmHg 84%
    22:00 +12°C° 0 mm 3 mps 761 mmHg 85%
    23:00 +12°C° 0 mm 2 mps 761 mmHg 86%

    Mañana, 22 Julio, Lunes

    Tiempo Temperatura Precipitaciones Viento Presión Humedad
    00:00 +12°C° 0 mm 2 mps 761 mmHg 87%
    01:00 +12°C° 0 mm 2 mps 761 mmHg 88%
    02:00 +12°C° 0 mm 2 mps 761 mmHg 89%
    03:00 +12°C° 0 mm 2 mps 760 mmHg 89%
    04:00 +12°C° 0 mm 2 mps 760 mmHg 90%
    05:00 +12°C° 0 mm 2 mps 761 mmHg 90%
    06:00 +12°C° 0 mm 2 mps 761 mmHg 89%
    07:00 +12°C° 0 mm 2 mps 761 mmHg 89%
    08:00 +15°C° 0 mm 2 mps 761 mmHg 77%
    09:00 +18°C° 0 mm 2 mps 761 mmHg 64%
    10:00 +21°C° 0 mm 2 mps 761 mmHg 52%
    11:00 +23°C° 0 mm 2 mps 761 mmHg 48%
    12:00 +22°C° 0 mm 3 mps 760 mmHg 45%
    13:00 +24°C° 0 mm 3 mps 759 mmHg 41%
    14:00 +22°C° 0 mm 3 mps 759 mmHg 47%
    15:00 +21°C° 0 mm 3 mps 759 mmHg 52%
    16:00 +20°C° 0 mm 3 mps 759 mmHg 58%
    17:00 +18°C° 0 mm 3 mps 759 mmHg 67%
    18:00 +16°C° 0 mm 3 mps 759 mmHg 76%
    19:00 +14°C° 0 mm 2 mps 760 mmHg 86%
    20:00 +14°C° 0 mm 2 mps 760 mmHg 86%
    21:00 +14°C° 0 mm 2 mps 760 mmHg 87%
    22:00 +13°C° 0 mm 2 mps 761 mmHg 88%
    23:00 +13°C° 0 mm 2 mps 760 mmHg 88%

    Pasado mañana, 23 Julio, Martes

    Tiempo Temperatura Precipitaciones Viento Presión Humedad
    00:00 +13°C° 0 mm 2 mps 760 mmHg 88%
    01:00 +13°C° 0 mm 2 mps 760 mmHg 89%
    02:00 +13°C° 0 mm 2 mps 760 mmHg 89%
    03:00 +13°C° 0 mm 2 mps 760 mmHg 89%
    04:00 +12°C° 0 mm 2 mps 760 mmHg 89%
    05:00 +12°C° 0 mm 2 mps 761 mmHg 87%
    06:00 +12°C° 0 mm 2 mps 761 mmHg 85%
    07:00 +13°C° 0 mm 2 mps 761 mmHg 83%
    08:00 +16°C° 0 mm 2 mps 761 mmHg 71%
    09:00 +20°C° 0 mm 1 mps 762 mmHg 59%
    10:00 +23°C° 0 mm 1 mps 762 mmHg 47%
    11:00 +24°C° 0 mm 1 mps 761 mmHg 44%
    12:00 +24°C° 0 mm 2 mps 761 mmHg 41%
    13:00 +25°C° 0 mm 2 mps 760 mmHg 38%
    14:00 +25°C° 0 mm 2 mps 760 mmHg 40%
    15:00 +25°C° 0 mm 2 mps 760 mmHg 43%
    16:00 +24°C° 0 mm 2 mps 759 mmHg 46%
    17:00 +21°C° 0 mm 2 mps 760 mmHg 53%
    18:00 +19°C° 0 mm 2 mps 760 mmHg 60%
    19:00 +16°C° 0 mm 3 mps 761 mmHg 67%
    20:00 +16°C° 0 mm 3 mps 761 mmHg 67%
    21:00 +15°C° 0 mm 2 mps 761 mmHg 68%
    22:00 +15°C° 0 mm 2 mps 762 mmHg 68%
    23:00 +14°C° 0 mm 2 mps 761 mmHg 69%

    24 Julio, Miércoles

    Tiempo Temperatura Precipitaciones Viento Presión Humedad
    00:00 +14°C° 0 mm 2 mps 761 mmHg 69%
    01:00 +14°C° 0 mm 2 mps 761 mmHg 70%
    02:00 +13°C° 0 mm 2 mps 761 mmHg 71%
    03:00 +13°C° 0 mm 2 mps 761 mmHg 72%
    04:00 +13°C° 0 mm 2 mps 761 mmHg 73%
    05:00 +13°C° 0 mm 2 mps 761 mmHg 73%
    06:00 +12°C° 0 mm 2 mps 761 mmHg 73%
    07:00 +12°C° 0 mm 2 mps 762 mmHg 73%
    08:00 +15°C° 0 mm 2 mps 762 mmHg 61%
    09:00 +18°C° 0 mm 2 mps 762 mmHg 50%
    10:00 +21°C° 0 mm 2 mps 762 mmHg 38%
    11:00 +23°C° 0 mm 2 mps 762 mmHg 34%
    12:00 +24°C° 0 mm 2 mps 761 mmHg 31%
    13:00 +25°C° 0 mm 2 mps 760 mmHg 27%
    14:00 +25°C° 0 mm 2 mps 760 mmHg 30%
    15:00 +24°C° 0 mm 1 mps 760 mmHg 34%
    16:00 +24°C° 0 mm 1 mps 760 mmHg 37%
    17:00 +21°C° 0 mm 1 mps 760 mmHg 43%
    18:00 +18°C° 0 mm 2 mps 761 mmHg 49%
    19:00 +15°C° 0 mm 2 mps 761 mmHg 55%
    20:00 +15°C° 0 mm 2 mps 761 mmHg 56%
    21:00 +13°C° 0 mm 3 mps 762 mmHg 58%
    22:00 +13°C° 0 mm 3 mps 762 mmHg 59%
    23:00 +12°C° 0 mm 3 mps 762 mmHg 62%

    25 Julio, Jueves

    Tiempo Temperatura Precipitaciones Viento Presión Humedad
    00:00 +12°C° 0 mm 4 mps 762 mmHg 65%
    01:00 +12°C° 0 mm 4 mps 762 mmHg 68%
    02:00 +12°C° 0 mm 4 mps 762 mmHg 73%
    03:00 +12°C° 0 mm 4 mps 762 mmHg 78%
    04:00 +12°C° 0 mm 4 mps 762 mmHg 83%
    05:00 +12°C° 0 mm 4 mps 762 mmHg 85%
    06:00 +12°C° 0 mm 4 mps 763 mmHg 86%
    07:00 +12°C° 0 mm 4 mps 764 mmHg 88%
    08:00 +14°C° 0 mm 4 mps 764 mmHg 78%
    09:00 +17°C° 0 mm 4 mps 764 mmHg 69%
    10:00 +20°C° 0 mm 4 mps 764 mmHg 59%
    11:00 +20°C° 0 mm 4 mps 763 mmHg 58%
    12:00 +20°C° 0 mm 4 mps 763 mmHg 58%
    13:00 +20°C° 0 mm 4 mps 762 mmHg 57%
    14:00 +20°C° 0 mm 4 mps 762 mmHg 60%
    15:00 +19°C° 0 mm 4 mps 762 mmHg 63%
    16:00 +19°C° 0 mm 4 mps 762 mmHg 66%
    17:00 +18°C° 0 mm 3 mps 762 mmHg 73%
    18:00 +16°C° 0 mm 3 mps 763 mmHg 79%
    19:00 +15°C° 0 mm 2 mps 763 mmHg 86%
    20:00 +15°C° 0 mm 2 mps 763 mmHg 87%
    21:00 +14°C° 0 mm 2 mps 763 mmHg 87%
    22:00 +14°C° 0 mm 2 mps 763 mmHg 88%
    23:00 +14°C° 0 mm 2 mps 763 mmHg 87%

    26 Julio, Viernes

    Tiempo Temperatura Precipitaciones Viento Presión Humedad
    00:00 +14°C° 0 mm 2 mps 763 mmHg 87%
    01:00 +14°C° 0 mm 1 mps 762 mmHg 86%
    02:00 +14°C° 0 mm 2 mps 762 mmHg 88%
    03:00 +13°C° 0 mm 2 mps 762 mmHg 89%
    04:00 +13°C° 0 mm 2 mps 762 mmHg 91%
    05:00 +13°C° 0 mm 2 mps 762 mmHg 91%
    06:00 +13°C° 0 mm 2 mps 762 mmHg 91%
    07:00 +13°C° 0 mm 2 mps 763 mmHg 90%
    08:00 +15°C° 0.1 mm 1 mps 763 mmHg 81%
    09:00 +18°C° 0.1 mm 1 mps 763 mmHg 72%
    10:00 +21°C° 0.1 mm 1 mps 763 mmHg 63%
    11:00 +22°C° 0.1 mm 1 mps 762 mmHg 59%
    12:00 +22°C° 0.1 mm 1 mps 761 mmHg 55%
    13:00 +23°C° 0.1 mm 2 mps 761 mmHg 51%
    14:00 +21°C° 0.1 mm 2 mps 761 mmHg 57%
    15:00 +20°C° 0.1 mm 2 mps 760 mmHg 63%
    16:00 +19°C° 0.1 mm 2 mps 760 mmHg 70%
    17:00 +18°C° 0 mm 2 mps 761 mmHg 75%
    18:00 +17°C° 0 mm 2 mps 761 mmHg 81%
    19:00 +16°C° 0 mm 2 mps 761 mmHg 86%
    20:00 +15°C° 0.1 mm 2 mps 761 mmHg 87%
    21:00 +15°C° 0.1 mm 2 mps 761 mmHg 88%
    22:00 +15°C° 0.1 mm 2 mps 761 mmHg 90%
    23:00 +14°C° 0.1 mm 2 mps 761 mmHg 91%
    Mostrar más